DELTA 1 DEB, 7124

Orbit data source: Space-Track

DELTA 1 DEB, 7124 is space debris in SSO originally from a launch on Tue, 06 Nov 1973 UTC launched from the Air Force Western Test Range (AFWTR). Debris objects in space refer to the collection of defunct objects orbiting the Earth. Examples of debris include non-operational satellites, rocket bodies, and fragments generated from explosions, collisions, or faulty payload assembly.

Loading next visibility...
Identifier
7124, 1973-086CN
Orbit
SSO
Country
Flag of USUS
Related business
Manufacturer
Unknown
Mission
Spacecraft
Bus & Motor
Unknown
Mass
Unknown
Launch date (UTC)
1973-11-06 (53 years ago)
Launch vehicle
Unknown
Launch site
Air Force Western Test Range (AFWTR)
Object type
Payload
Rocket body
Debris
Shape & HBR
Unknown shape, 0.1 m
Radar Cross Section
Medium (>0.1 m² and <1 m²)

Expand to show TLE details & history
Last TLE update: 14 hours ago

TLE from 14 hours ago
0 DELTA 1 DEB
1 07124U 73086CN  26265.58530549 -.00000032  00000-0  11218-3 0  9990
2 07124 102.4734 292.8567 0053236  89.4469  37.1110 12.30092691373767
Epoch: 2026-09-22T14:02Z
TLE epoch observation values (Epoch: 2026-09-22T14:02:50.394Z)
Latitude
51.40289°
Longitude
-83.29359°
Altitude
1,523.329 km
Speed
7.124 km/s
True Right ascension
08h 35m 27s
True Declination
51° 15' 05"
Sunlit
Object was in daylight at epoch
Visualization orbit readout
Latitude
Unknown
Longitude
Unknown
Altitude
Unknown
Speed
Unknown
Apparent Right ascension
Unknown
Apparent Declination
Unknown
Sunlit
N/A
Visualization observer readout
Local Sidereal Time
21:09:22
Azimuth
Unknown
Elevation
Unknown
Doppler factor
Unknown
Orbital elements
Apogee altitude
1,588.687 km
Perigee altitude
1,504.311 km
Semi-major axis
7,924.636 km
Eccentricity
0.00532
Inclination
102.4734°
RAAN
292.8567°
Arg. of periapsis
89.4469°
True anomaly
37.48103°
Mean anomaly
37.111°
Eccentric anomaly
37.29582°
Mean motion
3.07662 °/min
Orbital period
117.01 mins
BSTAR
0.00011218
Loading maneuver chart data...
Computing Atmospheric mass density...
Loading historical data...
Loading historical data...
Loading historical data...
Loading historical data...
Loading historical data...
Loading historical data...
Loading historical data...

Documentation

Showing up to 5 results
|